Weather History for KOGD - February, 2014

Change the Weather History Date:

Monday, February 17, 2014

  Actual Average Record
Temperature  
Mean Temperature 40 °F -  
Max Temperature 53 °F 44 °F 62 °F (1958)
Min Temperature 28 °F 25 °F -2 °F (1942)
Degree Days  
Heating Degree Days 24    
Moisture  
Dew Point 22 °F    
Average Humidity 52    
Maximum Humidity 69    
Minimum Humidity 30    
Precipitation  
Precipitation 0.00 in - - ()
Sea Level Pressure  
Sea Level Pressure 30.05 in    
Wind  
Wind Speed 7 mph (South)    
Max Wind Speed 13 mph    
Max Gust Speed -    
Visibility 10 miles    
Events      
Averages and records for this station are not official NWS values.
T = Trace of Precipitation, MM = Missing Value Source: NWS Daily Summary

Daily Weather History Graph

Daily Weather History Graph

Search for Another Location

Airport or City:

Trip Planner

Search our weather history database for the weather conditions in past years. The results will help you decide how hot, cold, wet, or windy it might be!

Date:

Astronomy

Feb. 17, 2014 Rise Set
Actual Time 7:19 AM MST 6:04 PM MST
Civil Twilight 6:51 AM MST 6:32 PM MST
Nautical Twilight 6:19 AM MST 7:05 PM MST
Astronomical Twilight 5:47 AM MST 7:37 PM MST
Moon 9:05 PM MST (2/17) 8:20 AM MST (2/17)
Length of Visible Light 11h 41m
Length of Day
10h 44m
Waning Gibbous, 93% of the Moon is Illuminated
Feb 17
Waning Gibbous
Feb 22
Last Quarter
Mar 1
New
Mar 8
First Quarter
Mar 16
Full

Hourly Weather History & Observations

Time (MST) Temp. Windchill Dew Point Humidity Pressure Visibility Wind Dir Wind Speed Gust Speed Precip Events Conditions
12:53 AM 33.1 °F 25.5 °F 19.9 °F 59% 30.25 in 10.0 mi SSE 9.2 mph - N/A   Clear
1:53 AM 32.0 °F 23.6 °F 19.9 °F 61% 30.22 in 10.0 mi SSE 10.4 mph - N/A   Clear
2:53 AM 30.9 °F 27.5 °F 19.9 °F 64% 30.22 in 10.0 mi ESE 3.5 mph - N/A   Clear
3:53 AM 30.0 °F 24.1 °F 19.9 °F 66% 30.20 in 10.0 mi South 5.8 mph - N/A   Clear
4:53 AM 30.0 °F 24.1 °F 19.9 °F 66% 30.20 in 10.0 mi SSE 5.8 mph - N/A   Clear
5:53 AM 28.9 °F 22.8 °F 19.9 °F 69% 30.19 in 10.0 mi SSE 5.8 mph - N/A   Clear
6:53 AM 28.9 °F 20.4 °F 19.9 °F 69% 30.19 in 10.0 mi South 9.2 mph - N/A   Clear
7:53 AM 30.9 °F 22.2 °F 19.0 °F 61% 30.16 in 10.0 mi South 10.4 mph - N/A   Clear
8:53 AM 34.0 °F 28.0 °F 21.0 °F 59% 30.14 in 10.0 mi SSE 6.9 mph - N/A   Clear
9:53 AM 37.9 °F 33.5 °F 21.0 °F 51% 30.13 in 10.0 mi SSE 5.8 mph - N/A   Clear
10:53 AM 42.1 °F 37.7 °F 19.9 °F 41% 30.09 in 10.0 mi SSE 6.9 mph - N/A   Clear
11:53 AM 46.0 °F - 21.0 °F 37% 30.06 in 10.0 mi Calm Calm - N/A   Clear
12:53 PM 48.9 °F - 21.9 °F 35% 30.02 in 10.0 mi SSE 4.6 mph - N/A   Clear
1:53 PM 51.1 °F - 23.0 °F 33% 29.97 in 10.0 mi South 12.7 mph - N/A   Clear
2:53 PM 53.1 °F - 21.9 °F 30% 29.94 in 10.0 mi South 9.2 mph - N/A   Clear
3:53 PM 52.0 °F - 21.0 °F 30% 29.92 in 10.0 mi SW 10.4 mph - N/A   Clear
4:53 PM 51.1 °F - 25.0 °F 36% 29.91 in 10.0 mi West 5.8 mph - N/A   Clear
5:53 PM 46.9 °F - 28.0 °F 48% 29.92 in 10.0 mi Calm Calm - N/A   Clear
6:53 PM 39.9 °F - 28.0 °F 63% 29.94 in 10.0 mi Calm Calm - N/A   Clear
7:53 PM 41.0 °F 34.3 °F 24.1 °F 51% 29.91 in 10.0 mi South 11.5 mph - N/A   Clear
8:53 PM 39.0 °F 34.0 °F 24.1 °F 55% 29.90 in 10.0 mi NW 6.9 mph - N/A   Clear
9:53 PM 41.0 °F 39.0 °F 23.0 °F 49% 29.89 in 10.0 mi WNW 3.5 mph - N/A   Clear
10:53 PM 35.1 °F 32.2 °F 25.0 °F 67% 29.91 in 10.0 mi ESE 3.5 mph - N/A   Clear
11:53 PM 39.9 °F 35.1 °F 21.9 °F 49% 29.91 in 10.0 mi South 6.9 mph - N/A   Clear